{"data":{"norad_id":37951,"intl_designator":"2011-074B","name":"LUCH 5A (SDCM/PRN 140)","alt_names":[],"object_type":"PAYLOAD","status":"ACTIVE","operator":null,"country":"CIS","launch_date":"2011-12-11","launch_site_code":"TYMSC","launch_vehicle":null,"mission":null,"orbit_class":"UNKNOWN","rcs_meters":25.1189,"size_class":null,"mass_kg":null,"dimensions":null,"purposes":["comms","earth_obs","nav"],"wikipedia_slug":null,"has_3d_model":false,"image_url":null,"decayed_at":null,"tle_current":{"epoch":"2026-05-25T02:49:35.589792Z","epoch_age_seconds":64906,"freshness":"FRESH","line1":"1 37951U 11074B   26145.11777303 -.00000050  00000+0  00000+0 0  9999","line2":"2 37951   8.6984  74.1428 0002375 352.1889  25.8954  1.00268429 52823","mean_motion":1.00268429,"eccentricity":0.0002375,"inclination_deg":8.6984,"raan_deg":74.1428,"arg_perigee_deg":352.1889,"mean_anomaly_deg":25.8954,"bstar":0,"rev_number":5282,"period_min":1436.1449704174,"perigee_km":35777.521448769,"apogee_km":35797.550143347,"semimajor_km":42165.672796058,"source":"CELESTRAK","updated_at":"2026-05-25T13:38:24.338307Z"}}}